Year,Month,Day,Hour,Minute,Value (Times are PST for temperature in C)
2018,04,24,00,00,8.10
2018,04,24,00,01,8.00
2018,04,24,00,02,8.00
2018,04,24,00,03,8.00
2018,04,24,00,04,8.00
2018,04,24,00,05,7.90
2018,04,24,00,06,7.90
2018,04,24,00,07,7.80
2018,04,24,00,08,7.80
2018,04,24,00,09,7.80
2018,04,24,00,10,7.80
2018,04,24,00,11,7.70
2018,04,24,00,12,7.70
2018,04,24,00,13,7.70
2018,04,24,00,14,7.70
2018,04,24,00,15,7.60
2018,04,24,00,16,7.60
2018,04,24,00,17,7.60
2018,04,24,00,18,7.60
2018,04,24,00,19,7.50
2018,04,24,00,20,7.50
2018,04,24,00,21,7.50
2018,04,24,00,22,7.50
2018,04,24,00,23,7.50
2018,04,24,00,24,7.50
2018,04,24,00,25,7.50
2018,04,24,00,26,7.40
2018,04,24,00,27,7.40
2018,04,24,00,28,7.40
2018,04,24,00,29,7.40
2018,04,24,00,30,7.40
2018,04,24,00,31,7.30
2018,04,24,00,32,7.30
2018,04,24,00,33,7.30
2018,04,24,00,34,7.30
2018,04,24,00,35,7.30
2018,04,24,00,36,7.20
2018,04,24,00,37,7.20
2018,04,24,00,38,7.20
2018,04,24,00,39,7.20
2018,04,24,00,40,7.10
2018,04,24,00,41,7.10
2018,04,24,00,42,7.10
2018,04,24,00,43,7.10
2018,04,24,00,44,7.10
2018,04,24,00,45,7.00
2018,04,24,00,46,7.00
2018,04,24,00,47,6.90
2018,04,24,00,48,6.90
2018,04,24,00,49,6.90
2018,04,24,00,50,6.90
2018,04,24,00,51,6.90
2018,04,24,00,52,6.90
2018,04,24,00,53,6.90
2018,04,24,00,54,6.90
2018,04,24,00,55,6.90
2018,04,24,00,56,6.90
2018,04,24,00,57,6.90
2018,04,24,00,58,6.90
2018,04,24,00,59,6.90
2018,04,24,01,00,6.80
2018,04,24,01,01,6.80
2018,04,24,01,02,6.80
2018,04,24,01,03,6.80
2018,04,24,01,04,6.80
2018,04,24,01,05,6.80
2018,04,24,01,06,6.80
2018,04,24,01,07,6.80
2018,04,24,01,08,6.70
2018,04,24,01,09,6.70
2018,04,24,01,10,6.70
2018,04,24,01,11,6.70
2018,04,24,01,12,6.70
2018,04,24,01,13,6.70
2018,04,24,01,14,6.60
2018,04,24,01,15,6.60
2018,04,24,01,16,6.60
2018,04,24,01,17,6.60
2018,04,24,01,18,6.60
2018,04,24,01,19,6.60
2018,04,24,01,20,6.60
2018,04,24,01,21,6.50
2018,04,24,01,22,6.50
2018,04,24,01,23,6.50
2018,04,24,01,24,6.50
2018,04,24,01,25,6.50
2018,04,24,01,26,6.50
2018,04,24,01,27,6.50
2018,04,24,01,28,6.50
2018,04,24,01,29,6.50
2018,04,24,01,30,6.50
2018,04,24,01,31,6.50
2018,04,24,01,32,6.40
2018,04,24,01,33,6.40
2018,04,24,01,34,6.40
2018,04,24,01,35,6.40
2018,04,24,01,36,6.40
2018,04,24,01,37,6.30
2018,04,24,01,38,6.30
2018,04,24,01,39,6.30
2018,04,24,01,40,6.20
2018,04,24,01,41,6.20
2018,04,24,01,42,6.20
2018,04,24,01,43,6.20
2018,04,24,01,44,6.20
2018,04,24,01,45,6.10
2018,04,24,01,46,6.10
2018,04,24,01,47,6.10
2018,04,24,01,48,6.10
2018,04,24,01,49,6.10
2018,04,24,01,50,6.10
2018,04,24,01,51,6.10
2018,04,24,01,52,6.10
2018,04,24,01,53,6.10
2018,04,24,01,54,6.10
2018,04,24,01,55,6.10
2018,04,24,01,56,6.10
2018,04,24,01,57,6.10
2018,04,24,01,58,6.10
2018,04,24,01,59,6.10
2018,04,24,02,00,6.10
2018,04,24,02,01,6.10
2018,04,24,02,02,6.10
2018,04,24,02,03,6.10
2018,04,24,02,04,6.10
2018,04,24,02,05,6.10
2018,04,24,02,06,6.10
2018,04,24,02,07,6.10
2018,04,24,02,08,6.00
2018,04,24,02,09,6.00
2018,04,24,02,10,6.00
2018,04,24,02,11,5.90
2018,04,24,02,12,5.90
2018,04,24,02,13,5.90
2018,04,24,02,14,5.80
2018,04,24,02,15,5.80
2018,04,24,02,16,5.80
2018,04,24,02,17,5.80
2018,04,24,02,18,5.80
2018,04,24,02,19,5.90
2018,04,24,02,20,5.90
2018,04,24,02,21,5.90
2018,04,24,02,22,5.90
2018,04,24,02,23,5.90
2018,04,24,02,24,5.90
2018,04,24,02,25,5.90
2018,04,24,02,26,5.90
2018,04,24,02,27,5.90
2018,04,24,02,28,5.90
2018,04,24,02,29,5.90
2018,04,24,02,30,5.90
2018,04,24,02,31,5.90
2018,04,24,02,32,5.80
2018,04,24,02,33,5.80
2018,04,24,02,34,5.80
2018,04,24,02,35,5.80
2018,04,24,02,36,5.80
2018,04,24,02,37,5.70
2018,04,24,02,38,5.70
2018,04,24,02,39,5.70
2018,04,24,02,40,5.70
2018,04,24,02,41,5.70
2018,04,24,02,42,5.70
2018,04,24,02,43,5.60
2018,04,24,02,44,5.60
2018,04,24,02,45,5.60
2018,04,24,02,46,5.60
2018,04,24,02,47,5.60
2018,04,24,02,48,5.60
2018,04,24,02,49,5.50
2018,04,24,02,50,5.50
2018,04,24,02,51,5.50
2018,04,24,02,52,5.50
2018,04,24,02,53,5.50
2018,04,24,02,54,5.50
2018,04,24,02,55,5.50
2018,04,24,02,56,5.50
2018,04,24,02,57,5.50
2018,04,24,02,58,5.50
2018,04,24,02,59,5.50
2018,04,24,03,00,5.50
2018,04,24,03,01,5.50
2018,04,24,03,02,5.50
2018,04,24,03,03,5.50
2018,04,24,03,04,5.50
2018,04,24,03,05,5.60
2018,04,24,03,06,5.60
2018,04,24,03,07,5.60
2018,04,24,03,08,5.60
2018,04,24,03,09,5.60
2018,04,24,03,10,5.60
2018,04,24,03,11,5.60
2018,04,24,03,12,5.60
2018,04,24,03,13,5.60
2018,04,24,03,14,5.60
2018,04,24,03,15,5.70
2018,04,24,03,16,5.70
2018,04,24,03,17,5.70
2018,04,24,03,18,5.80
2018,04,24,03,19,5.70
2018,04,24,03,20,5.70
2018,04,24,03,21,5.70
2018,04,24,03,22,5.70
2018,04,24,03,23,5.70
2018,04,24,03,24,5.70
2018,04,24,03,25,5.70
2018,04,24,03,26,5.70
2018,04,24,03,27,5.70
2018,04,24,03,28,5.60
2018,04,24,03,29,5.60
2018,04,24,03,30,5.60
2018,04,24,03,31,5.60
2018,04,24,03,32,5.60
2018,04,24,03,33,5.60
2018,04,24,03,34,5.60
2018,04,24,03,35,5.60
2018,04,24,03,36,5.50
2018,04,24,03,37,5.50
2018,04,24,03,38,5.50
2018,04,24,03,39,5.40
2018,04,24,03,40,5.40
2018,04,24,03,41,5.40
2018,04,24,03,42,5.40
2018,04,24,03,43,5.40
2018,04,24,03,44,5.40
2018,04,24,03,45,5.40
2018,04,24,03,46,5.40
2018,04,24,03,47,5.30
2018,04,24,03,48,5.30
2018,04,24,03,49,5.30
2018,04,24,03,50,5.30
2018,04,24,03,51,5.30
2018,04,24,03,52,5.30
2018,04,24,03,53,5.30
2018,04,24,03,54,5.40
2018,04,24,03,55,5.40
2018,04,24,03,56,5.40
2018,04,24,03,57,5.40
2018,04,24,03,58,5.40
2018,04,24,03,59,5.50
2018,04,24,04,00,5.50
2018,04,24,04,01,5.40
2018,04,24,04,02,5.40
2018,04,24,04,03,5.40
2018,04,24,04,04,5.40
2018,04,24,04,05,5.40
2018,04,24,04,06,5.40
2018,04,24,04,07,5.40
2018,04,24,04,08,5.40
2018,04,24,04,09,5.40
2018,04,24,04,10,5.40
2018,04,24,04,11,5.40
2018,04,24,04,12,5.40
2018,04,24,04,13,5.40
2018,04,24,04,14,5.50
2018,04,24,04,15,5.50
2018,04,24,04,16,5.50
2018,04,24,04,17,5.50
2018,04,24,04,18,5.60
2018,04,24,04,19,5.60
2018,04,24,04,20,5.60
2018,04,24,04,21,5.60
2018,04,24,04,22,5.60
2018,04,24,04,23,5.70
2018,04,24,04,24,5.70
2018,04,24,04,25,5.80
2018,04,24,04,26,5.90
2018,04,24,04,27,6.00
2018,04,24,04,28,6.00
2018,04,24,04,29,6.10
2018,04,24,04,30,6.10
2018,04,24,04,31,6.20
2018,04,24,04,32,6.30
2018,04,24,04,33,6.40
2018,04,24,04,34,6.40
2018,04,24,04,35,6.50
2018,04,24,04,36,6.60
2018,04,24,04,37,6.70
2018,04,24,04,38,6.70
2018,04,24,04,39,6.80
2018,04,24,04,40,6.90
2018,04,24,04,41,7.10
2018,04,24,04,42,7.20
2018,04,24,04,43,7.40
2018,04,24,04,44,7.50
2018,04,24,04,45,7.60
2018,04,24,04,46,7.70
2018,04,24,04,47,7.80
2018,04,24,04,48,8.00
2018,04,24,04,49,8.10
2018,04,24,04,50,8.20
2018,04,24,04,51,8.20
2018,04,24,04,52,8.20
2018,04,24,04,53,8.30
2018,04,24,04,54,8.30
2018,04,24,04,55,8.20
2018,04,24,04,56,8.20
2018,04,24,04,57,8.20
2018,04,24,04,58,8.10
2018,04,24,04,59,8.10
2018,04,24,05,00,8.00
2018,04,24,05,01,8.00
2018,04,24,05,02,8.00
2018,04,24,05,03,8.10
2018,04,24,05,04,8.10
2018,04,24,05,05,8.20
2018,04,24,05,06,8.30
2018,04,24,05,07,8.40
2018,04,24,05,08,8.60
2018,04,24,05,09,8.80
2018,04,24,05,10,9.00
2018,04,24,05,11,9.20
2018,04,24,05,12,9.40
2018,04,24,05,13,9.60
2018,04,24,05,14,9.80
2018,04,24,05,15,9.90
2018,04,24,05,16,10.00
2018,04,24,05,17,10.00
2018,04,24,05,18,10.00
2018,04,24,05,19,10.10
2018,04,24,05,20,10.20
2018,04,24,05,21,10.50
2018,04,24,05,22,10.80
2018,04,24,05,23,11.00
2018,04,24,05,24,11.10
2018,04,24,05,25,11.20
2018,04,24,05,26,11.20
2018,04,24,05,27,11.30
2018,04,24,05,28,11.30
2018,04,24,05,29,11.40
2018,04,24,05,30,11.40
2018,04,24,05,31,11.40
2018,04,24,05,32,11.30
2018,04,24,05,33,11.30
2018,04,24,05,34,11.30
2018,04,24,05,35,11.30
2018,04,24,05,36,11.20
2018,04,24,05,37,11.20
2018,04,24,05,38,11.20
2018,04,24,05,39,11.20
2018,04,24,05,40,11.20
2018,04,24,05,41,11.20
2018,04,24,05,42,11.10
2018,04,24,05,43,11.10
2018,04,24,05,44,11.10
2018,04,24,05,45,11.10
2018,04,24,05,46,11.00
2018,04,24,05,47,11.00
2018,04,24,05,48,11.00
2018,04,24,05,49,10.90
2018,04,24,05,50,10.90
2018,04,24,05,51,10.90
2018,04,24,05,52,10.90
2018,04,24,05,53,10.90
2018,04,24,05,54,10.90
2018,04,24,05,55,10.90
2018,04,24,05,56,10.90
2018,04,24,05,57,10.90
2018,04,24,05,58,10.90
2018,04,24,05,59,10.90
2018,04,24,06,00,11.00
2018,04,24,06,01,11.00
2018,04,24,06,02,11.00
2018,04,24,06,03,11.00
2018,04,24,06,04,11.00
2018,04,24,06,05,11.00
2018,04,24,06,06,11.00
2018,04,24,06,07,11.00
2018,04,24,06,08,11.00
2018,04,24,06,09,10.90
2018,04,24,06,10,10.90
2018,04,24,06,11,10.90
2018,04,24,06,12,10.90
2018,04,24,06,13,10.90
2018,04,24,06,14,10.90
2018,04,24,06,15,10.90
2018,04,24,06,16,10.90
2018,04,24,06,17,10.90
2018,04,24,06,18,10.90
2018,04,24,06,19,10.90
2018,04,24,06,20,10.80
2018,04,24,06,21,10.80
2018,04,24,06,22,10.90
2018,04,24,06,23,10.90
2018,04,24,06,24,10.90
2018,04,24,06,25,11.00
2018,04,24,06,26,11.00
2018,04,24,06,27,11.10
2018,04,24,06,28,11.10
2018,04,24,06,29,11.10
2018,04,24,06,30,11.10
2018,04,24,06,31,11.10
2018,04,24,06,32,11.10
2018,04,24,06,33,11.10
2018,04,24,06,34,11.10
2018,04,24,06,35,11.10
2018,04,24,06,36,11.10
2018,04,24,06,37,11.00
2018,04,24,06,38,11.00
2018,04,24,06,39,11.00
2018,04,24,06,40,10.90
2018,04,24,06,41,10.90
2018,04,24,06,42,10.90
2018,04,24,06,43,10.90
2018,04,24,06,44,10.90
2018,04,24,06,45,10.90
2018,04,24,06,46,10.80
2018,04,24,06,47,10.80
2018,04,24,06,48,10.90
2018,04,24,06,49,10.90
2018,04,24,06,50,10.90
2018,04,24,06,51,10.90
2018,04,24,06,52,10.90
2018,04,24,06,53,10.90
2018,04,24,06,54,10.90
2018,04,24,06,55,10.90
2018,04,24,06,56,11.00
2018,04,24,06,57,11.00
2018,04,24,06,58,11.00
2018,04,24,06,59,11.00
2018,04,24,07,00,11.00
2018,04,24,07,01,11.10
2018,04,24,07,02,11.20
2018,04,24,07,03,11.20
2018,04,24,07,04,11.20
2018,04,24,07,05,11.30
2018,04,24,07,06,11.30
2018,04,24,07,07,11.30
2018,04,24,07,08,11.30
2018,04,24,07,09,11.30
2018,04,24,07,10,11.30
2018,04,24,07,11,11.30
2018,04,24,07,12,11.30
2018,04,24,07,13,11.30
2018,04,24,07,14,11.30
2018,04,24,07,15,11.40
2018,04,24,07,16,11.40
2018,04,24,07,17,11.40
2018,04,24,07,18,11.40
2018,04,24,07,19,11.40
2018,04,24,07,20,11.40
2018,04,24,07,21,11.50
2018,04,24,07,22,11.50
2018,04,24,07,23,11.50
2018,04,24,07,24,11.50
2018,04,24,07,25,11.60
2018,04,24,07,26,11.60
2018,04,24,07,27,11.60
2018,04,24,07,28,11.60
2018,04,24,07,29,11.70
2018,04,24,07,30,11.70
2018,04,24,07,31,11.70
2018,04,24,07,32,11.70
2018,04,24,07,33,11.80
2018,04,24,07,34,11.80
2018,04,24,07,35,11.90
2018,04,24,07,36,11.90
2018,04,24,07,37,11.90
2018,04,24,07,38,12.00
2018,04,24,07,39,12.00
2018,04,24,07,40,12.10
2018,04,24,07,41,12.10
2018,04,24,07,42,12.20
2018,04,24,07,43,12.20
2018,04,24,07,44,12.20
2018,04,24,07,45,12.30
2018,04,24,07,46,12.30
2018,04,24,07,47,12.30
2018,04,24,07,48,12.40
2018,04,24,07,49,12.40
2018,04,24,07,50,12.50
2018,04,24,07,51,12.50
2018,04,24,07,52,12.50
2018,04,24,07,53,12.60
2018,04,24,07,54,12.60
2018,04,24,07,55,12.70
2018,04,24,07,56,12.70
2018,04,24,07,57,12.70
2018,04,24,07,58,12.70
2018,04,24,07,59,12.80
2018,04,24,08,00,12.80
2018,04,24,08,01,12.80
2018,04,24,08,02,12.80
2018,04,24,08,03,12.80
2018,04,24,08,04,12.90
2018,04,24,08,05,12.90
2018,04,24,08,06,12.90
2018,04,24,08,07,12.90
2018,04,24,08,08,13.00
2018,04,24,08,09,13.00
2018,04,24,08,10,13.00
2018,04,24,08,11,13.10
2018,04,24,08,12,13.10
2018,04,24,08,13,13.10
2018,04,24,08,14,13.10
2018,04,24,08,15,13.10
2018,04,24,08,16,13.10
2018,04,24,08,17,13.10
2018,04,24,08,18,13.10
2018,04,24,08,19,13.20
2018,04,24,08,20,13.20
2018,04,24,08,21,13.20
2018,04,24,08,22,13.20
2018,04,24,08,23,13.30
2018,04,24,08,24,13.30
2018,04,24,08,25,13.30
2018,04,24,08,26,13.30
2018,04,24,08,27,13.30
2018,04,24,08,28,13.30
2018,04,24,08,29,13.40
2018,04,24,08,30,13.40
2018,04,24,08,31,13.40
2018,04,24,08,32,13.40
2018,04,24,08,33,13.40
2018,04,24,08,34,13.40
2018,04,24,08,35,13.40
2018,04,24,08,36,13.40
2018,04,24,08,37,13.30
2018,04,24,08,38,13.40
2018,04,24,08,39,13.40
2018,04,24,08,40,13.40
2018,04,24,08,41,13.40
2018,04,24,08,42,13.40
2018,04,24,08,43,13.50
2018,04,24,08,44,13.50
2018,04,24,08,45,13.50
2018,04,24,08,46,13.50
2018,04,24,08,47,13.50
2018,04,24,08,48,13.60
2018,04,24,08,49,13.60
2018,04,24,08,50,13.60
2018,04,24,08,51,13.60
2018,04,24,08,52,13.60
2018,04,24,08,53,13.60
2018,04,24,08,54,13.60
2018,04,24,08,55,13.70
2018,04,24,08,56,13.80
2018,04,24,08,57,13.80
2018,04,24,08,58,13.80
2018,04,24,08,59,13.80
2018,04,24,09,00,13.80
2018,04,24,09,01,13.80
2018,04,24,09,02,13.80
2018,04,24,09,03,13.90
2018,04,24,09,04,13.90
2018,04,24,09,05,13.90
2018,04,24,09,06,13.90
2018,04,24,09,07,14.00
2018,04,24,09,08,14.00
2018,04,24,09,09,14.00
2018,04,24,09,10,14.00
2018,04,24,09,11,14.00
2018,04,24,09,12,14.00
2018,04,24,09,13,14.00
2018,04,24,09,14,14.10
2018,04,24,09,15,14.10
2018,04,24,09,16,14.10
2018,04,24,09,17,14.10
2018,04,24,09,18,14.10
2018,04,24,09,19,14.10
2018,04,24,09,20,14.10
2018,04,24,09,21,14.20
2018,04,24,09,22,14.20
2018,04,24,09,23,14.20
2018,04,24,09,24,14.20
2018,04,24,09,25,14.30
2018,04,24,09,26,14.20
2018,04,24,09,27,14.20
2018,04,24,09,28,14.20
2018,04,24,09,29,14.20
2018,04,24,09,30,14.20
2018,04,24,09,31,14.30
2018,04,24,09,32,14.30
2018,04,24,09,33,14.30
2018,04,24,09,34,14.30
2018,04,24,09,35,14.30
2018,04,24,09,36,14.30
2018,04,24,09,37,14.40
2018,04,24,09,38,14.40
2018,04,24,09,39,14.50
2018,04,24,09,40,14.50
2018,04,24,09,41,14.60
2018,04,24,09,42,14.60
2018,04,24,09,43,14.70
2018,04,24,09,44,14.70
2018,04,24,09,45,14.70
2018,04,24,09,46,14.70
2018,04,24,09,47,14.70
2018,04,24,09,48,14.70
2018,04,24,09,49,14.60
2018,04,24,09,50,14.60
2018,04,24,09,51,14.60
2018,04,24,09,52,14.60
2018,04,24,09,53,14.70
2018,04,24,09,54,14.70
2018,04,24,09,55,14.80
2018,04,24,09,56,14.80
2018,04,24,09,57,14.90
2018,04,24,09,58,14.90
2018,04,24,09,59,14.90
2018,04,24,10,00,14.90
2018,04,24,10,01,14.90
2018,04,24,10,02,14.90
2018,04,24,10,03,15.00
2018,04,24,10,04,15.00
2018,04,24,10,05,15.10
2018,04,24,10,06,15.10
2018,04,24,10,07,15.20
2018,04,24,10,08,15.30
2018,04,24,10,09,15.30
2018,04,24,10,10,15.30
2018,04,24,10,11,15.40
2018,04,24,10,12,15.40
2018,04,24,10,13,15.40
2018,04,24,10,14,15.40
2018,04,24,10,15,15.40
2018,04,24,10,16,15.40
2018,04,24,10,17,15.40
2018,04,24,10,18,15.50
2018,04,24,10,19,15.50
2018,04,24,10,20,15.60
2018,04,24,10,21,15.50
2018,04,24,10,22,15.50
2018,04,24,10,23,15.50
2018,04,24,10,24,15.50
2018,04,24,10,25,15.40
2018,04,24,10,26,15.50
2018,04,24,10,27,15.50
2018,04,24,10,28,15.50
2018,04,24,10,29,15.50
2018,04,24,10,30,15.50
2018,04,24,10,31,15.60
2018,04,24,10,32,15.60
2018,04,24,10,33,15.60
2018,04,24,10,34,15.60
2018,04,24,10,35,15.60
2018,04,24,10,36,15.70
2018,04,24,10,37,15.70
2018,04,24,10,38,15.80
2018,04,24,10,39,15.80
2018,04,24,10,40,15.80
2018,04,24,10,41,15.70
2018,04,24,10,42,15.70
2018,04,24,10,43,15.70
2018,04,24,10,44,15.70
2018,04,24,10,45,15.60
2018,04,24,10,46,15.60
2018,04,24,10,47,15.60
2018,04,24,10,48,15.70
2018,04,24,10,49,15.70
2018,04,24,10,50,15.80
2018,04,24,10,51,15.90
2018,04,24,10,52,16.00
2018,04,24,10,53,16.10
2018,04,24,10,54,16.10
2018,04,24,10,55,16.10
2018,04,24,10,56,16.10
2018,04,24,10,57,16.10
2018,04,24,10,58,16.10
2018,04,24,10,59,16.10
2018,04,24,11,00,16.10
2018,04,24,11,01,16.10
2018,04,24,11,02,16.20
2018,04,24,11,03,16.20
2018,04,24,11,04,16.30
2018,04,24,11,05,16.30
2018,04,24,11,06,16.30
2018,04,24,11,07,16.20
2018,04,24,11,08,16.20
2018,04,24,11,09,16.10
2018,04,24,11,10,16.10
2018,04,24,11,11,16.10
2018,04,24,11,12,16.10
2018,04,24,11,13,16.10
2018,04,24,11,14,16.10
2018,04,24,11,15,16.10
2018,04,24,11,16,16.20
2018,04,24,11,17,16.20
2018,04,24,11,18,16.20
2018,04,24,11,19,16.30
2018,04,24,11,20,16.30
2018,04,24,11,21,16.30
2018,04,24,11,22,16.40
2018,04,24,11,23,16.50
2018,04,24,11,24,16.60
2018,04,24,11,25,16.60
2018,04,24,11,26,16.60
2018,04,24,11,27,16.60
2018,04,24,11,28,16.50
2018,04,24,11,29,16.50
2018,04,24,11,30,16.60
2018,04,24,11,31,16.60
2018,04,24,11,32,16.70
2018,04,24,11,33,16.70
2018,04,24,11,34,16.70
2018,04,24,11,35,16.60
2018,04,24,11,36,16.60
2018,04,24,11,37,16.50
2018,04,24,11,38,16.50
2018,04,24,11,39,16.60
2018,04,24,11,40,16.60
2018,04,24,11,41,16.70
2018,04,24,11,42,16.70
2018,04,24,11,43,16.80
2018,04,24,11,44,16.80
2018,04,24,11,45,16.90
2018,04,24,11,46,17.00
2018,04,24,11,47,17.00
2018,04,24,11,48,17.10
2018,04,24,11,49,17.20
2018,04,24,11,50,17.30
2018,04,24,11,51,17.30
2018,04,24,11,52,17.20
2018,04,24,11,53,17.10
2018,04,24,11,54,17.10
2018,04,24,11,55,17.10
2018,04,24,11,56,17.10
2018,04,24,11,57,17.10
2018,04,24,11,58,17.00
2018,04,24,11,59,16.90
2018,04,24,12,00,16.90
2018,04,24,12,01,16.80
2018,04,24,12,02,16.80
2018,04,24,12,03,16.80
2018,04,24,12,04,16.80
2018,04,24,12,05,16.90
2018,04,24,12,06,17.00
2018,04,24,12,07,17.20
2018,04,24,12,08,17.20
2018,04,24,12,09,17.30
2018,04,24,12,10,17.20
2018,04,24,12,11,17.20
2018,04,24,12,12,17.10
2018,04,24,12,13,17.10
2018,04,24,12,14,17.10
2018,04,24,12,15,17.10
2018,04,24,12,16,17.10
2018,04,24,12,17,17.20
2018,04,24,12,18,17.20
2018,04,24,12,19,17.10
2018,04,24,12,20,17.20
2018,04,24,12,21,17.20
2018,04,24,12,22,17.20
2018,04,24,12,23,17.20
2018,04,24,12,24,17.20
2018,04,24,12,25,17.20
2018,04,24,12,26,17.20
2018,04,24,12,27,17.20
2018,04,24,12,28,17.20
2018,04,24,12,29,17.20
2018,04,24,12,30,17.20
2018,04,24,12,31,17.20
2018,04,24,12,32,17.20
2018,04,24,12,33,17.20
2018,04,24,12,34,17.30
2018,04,24,12,35,17.30
2018,04,24,12,36,17.30
2018,04,24,12,37,17.40
2018,04,24,12,38,17.40
2018,04,24,12,39,17.30
2018,04,24,12,40,17.30
2018,04,24,12,41,17.30
2018,04,24,12,42,17.30
2018,04,24,12,43,17.30
2018,04,24,12,44,17.30
2018,04,24,12,45,17.30
2018,04,24,12,46,17.40
2018,04,24,12,47,17.40
2018,04,24,12,48,17.40
2018,04,24,12,49,17.50
2018,04,24,12,50,17.50
2018,04,24,12,51,17.50
2018,04,24,12,52,17.50
2018,04,24,12,53,17.50
2018,04,24,12,54,17.60
2018,04,24,12,55,17.50
2018,04,24,12,56,17.50
2018,04,24,12,57,17.40
2018,04,24,12,58,17.40
2018,04,24,12,59,17.50
2018,04,24,13,00,17.50
2018,04,24,13,01,17.70
2018,04,24,13,02,17.70
2018,04,24,13,03,17.80
2018,04,24,13,04,17.80
2018,04,24,13,05,17.80
2018,04,24,13,06,17.80
2018,04,24,13,07,17.80
2018,04,24,13,08,17.90
2018,04,24,13,09,18.00
2018,04,24,13,10,18.10
2018,04,24,13,11,18.20
2018,04,24,13,12,18.10
2018,04,24,13,13,18.20
2018,04,24,13,14,18.20
2018,04,24,13,15,18.20
2018,04,24,13,16,18.20
2018,04,24,13,17,18.10
2018,04,24,13,18,18.10
2018,04,24,13,19,18.10
2018,04,24,13,20,18.20
2018,04,24,13,21,18.20
2018,04,24,13,22,18.20
2018,04,24,13,23,18.20
2018,04,24,13,24,18.20
2018,04,24,13,25,18.20
2018,04,24,13,26,18.20
2018,04,24,13,27,18.20
2018,04,24,13,28,18.10
2018,04,24,13,29,18.20
2018,04,24,13,30,18.20
2018,04,24,13,31,18.20
2018,04,24,13,32,18.20
2018,04,24,13,33,18.30
2018,04,24,13,34,18.30
2018,04,24,13,35,18.40
2018,04,24,13,36,18.30
2018,04,24,13,37,18.30
2018,04,24,13,38,18.20
2018,04,24,13,39,18.20
2018,04,24,13,40,18.20
2018,04,24,13,41,18.30
2018,04,24,13,42,18.40
2018,04,24,13,43,18.40
2018,04,24,13,44,18.40
2018,04,24,13,45,18.50
2018,04,24,13,46,18.60
2018,04,24,13,47,18.50
2018,04,24,13,48,18.40
2018,04,24,13,49,18.30
2018,04,24,13,50,18.30
2018,04,24,13,51,18.20
2018,04,24,13,52,18.20
2018,04,24,13,53,18.20
2018,04,24,13,54,18.20
2018,04,24,13,55,18.30
2018,04,24,13,56,18.30
2018,04,24,13,57,18.40
2018,04,24,13,58,18.40
2018,04,24,13,59,18.40
2018,04,24,14,00,18.40
2018,04,24,14,01,18.40
2018,04,24,14,02,18.50
2018,04,24,14,03,18.50
2018,04,24,14,04,18.60
2018,04,24,14,05,18.60
2018,04,24,14,06,18.60
2018,04,24,14,07,18.50
2018,04,24,14,08,18.50
2018,04,24,14,09,18.50
2018,04,24,14,10,18.50
2018,04,24,14,11,18.50
2018,04,24,14,12,18.50
2018,04,24,14,13,18.50
2018,04,24,14,14,18.50
2018,04,24,14,15,18.50
2018,04,24,14,16,18.50
2018,04,24,14,17,18.50
2018,04,24,14,18,18.60
2018,04,24,14,19,18.70
2018,04,24,14,20,18.70
2018,04,24,14,21,18.80
2018,04,24,14,22,18.80
2018,04,24,14,23,18.90
2018,04,24,14,24,18.90
2018,04,24,14,25,18.90
2018,04,24,14,26,18.90
2018,04,24,14,27,18.90
2018,04,24,14,28,18.90
2018,04,24,14,29,18.90
2018,04,24,14,30,18.90
2018,04,24,14,31,18.90
2018,04,24,14,32,18.90
2018,04,24,14,33,18.90
2018,04,24,14,34,19.00
2018,04,24,14,35,19.10
2018,04,24,14,36,19.10
2018,04,24,14,37,19.00
2018,04,24,14,38,19.00
2018,04,24,14,39,18.90
2018,04,24,14,40,19.00
2018,04,24,14,41,19.00
2018,04,24,14,42,19.10
2018,04,24,14,43,19.20
2018,04,24,14,44,19.10
2018,04,24,14,45,19.00
2018,04,24,14,46,18.90
2018,04,24,14,47,18.90
2018,04,24,14,48,18.90
2018,04,24,14,49,18.90
2018,04,24,14,50,18.90
2018,04,24,14,51,18.90
2018,04,24,14,52,18.90
2018,04,24,14,53,19.00
2018,04,24,14,54,19.10
2018,04,24,14,55,19.20
2018,04,24,14,56,19.40
2018,04,24,14,57,19.50
2018,04,24,14,58,19.40
2018,04,24,14,59,19.30
2018,04,24,15,00,19.30
2018,04,24,15,01,19.30
2018,04,24,15,02,19.30
2018,04,24,15,03,19.30
2018,04,24,15,04,19.20
2018,04,24,15,05,19.20
2018,04,24,15,06,19.20
2018,04,24,15,07,19.20
2018,04,24,15,08,19.10
2018,04,24,15,09,19.10
2018,04,24,15,10,19.10
2018,04,24,15,11,19.10
2018,04,24,15,12,19.10
2018,04,24,15,13,19.00
2018,04,24,15,14,19.00
2018,04,24,15,15,19.10
2018,04,24,15,16,19.20
2018,04,24,15,17,19.20
2018,04,24,15,18,19.30
2018,04,24,15,19,19.30
2018,04,24,15,20,19.40
2018,04,24,15,21,19.50
2018,04,24,15,22,19.50
2018,04,24,15,23,19.40
2018,04,24,15,24,19.30
2018,04,24,15,25,19.30
2018,04,24,15,26,19.30
2018,04,24,15,27,19.30
2018,04,24,15,28,19.20
2018,04,24,15,29,19.20
2018,04,24,15,30,19.20
2018,04,24,15,31,19.20
2018,04,24,15,32,19.20
2018,04,24,15,33,19.20
2018,04,24,15,34,19.20
2018,04,24,15,35,19.30
2018,04,24,15,36,19.30
2018,04,24,15,37,19.40
2018,04,24,15,38,19.50
2018,04,24,15,39,19.50
2018,04,24,15,40,19.60
2018,04,24,15,41,19.70
2018,04,24,15,42,19.70
2018,04,24,15,43,19.70
2018,04,24,15,44,19.70
2018,04,24,15,45,19.80
2018,04,24,15,46,19.90
2018,04,24,15,47,19.90
2018,04,24,15,48,19.90
2018,04,24,15,49,20.00
2018,04,24,15,50,20.00
2018,04,24,15,51,20.10
2018,04,24,15,52,20.10
2018,04,24,15,53,20.10
2018,04,24,15,54,20.00
2018,04,24,15,55,20.00
2018,04,24,15,56,19.90
2018,04,24,15,57,19.80
2018,04,24,15,58,19.70
2018,04,24,15,59,19.70
2018,04,24,16,00,19.70
2018,04,24,16,01,19.60
2018,04,24,16,02,19.60
2018,04,24,16,03,19.60
2018,04,24,16,04,19.60
2018,04,24,16,05,19.60
2018,04,24,16,06,19.60
2018,04,24,16,07,19.60
2018,04,24,16,08,19.60
2018,04,24,16,09,19.50
2018,04,24,16,10,19.50
2018,04,24,16,11,19.60
2018,04,24,16,12,19.60
2018,04,24,16,13,19.70
2018,04,24,16,14,19.60
2018,04,24,16,15,19.60
2018,04,24,16,16,19.60
2018,04,24,16,17,19.60
2018,04,24,16,18,19.60
2018,04,24,16,19,19.60
2018,04,24,16,20,19.70
2018,04,24,16,21,19.70
2018,04,24,16,22,19.70
2018,04,24,16,23,19.70
2018,04,24,16,24,19.70
2018,04,24,16,25,19.70
2018,04,24,16,26,19.60
2018,04,24,16,27,19.50
2018,04,24,16,28,19.50
2018,04,24,16,29,19.50
2018,04,24,16,30,19.50
2018,04,24,16,31,19.50
2018,04,24,16,32,19.50
2018,04,24,16,33,19.40
2018,04,24,16,34,19.40
2018,04,24,16,35,19.40
2018,04,24,16,36,19.40
2018,04,24,16,37,19.40
2018,04,24,16,38,19.40
2018,04,24,16,39,19.50
2018,04,24,16,40,19.50
2018,04,24,16,41,19.60
2018,04,24,16,42,19.70
2018,04,24,16,43,19.70
2018,04,24,16,44,19.70
2018,04,24,16,45,19.60
2018,04,24,16,46,19.60
2018,04,24,16,47,19.50
2018,04,24,16,48,19.50
2018,04,24,16,49,19.40
2018,04,24,16,50,19.40
2018,04,24,16,51,19.40
2018,04,24,16,52,19.40
2018,04,24,16,53,19.40
2018,04,24,16,54,19.40
2018,04,24,16,55,19.40
2018,04,24,16,56,19.40
2018,04,24,16,57,19.40
2018,04,24,16,58,19.40
2018,04,24,16,59,19.40
2018,04,24,17,00,19.40
2018,04,24,17,01,19.50
2018,04,24,17,02,19.50
2018,04,24,17,03,19.50
2018,04,24,17,04,19.50
2018,04,24,17,05,19.50
2018,04,24,17,06,19.50
2018,04,24,17,07,19.40
2018,04,24,17,08,19.40
2018,04,24,17,09,19.40
2018,04,24,17,10,19.40
2018,04,24,17,11,19.40
2018,04,24,17,12,19.50
2018,04,24,17,13,19.50
2018,04,24,17,14,19.50
2018,04,24,17,15,19.60
2018,04,24,17,16,19.70
2018,04,24,17,17,19.70
2018,04,24,17,18,19.70
2018,04,24,17,19,19.70
2018,04,24,17,20,19.70
2018,04,24,17,21,19.60
2018,04,24,17,22,19.60
2018,04,24,17,23,19.60
2018,04,24,17,24,19.60
2018,04,24,17,25,19.70
2018,04,24,17,26,19.70
2018,04,24,17,27,19.70
2018,04,24,17,28,19.70
2018,04,24,17,29,19.70
2018,04,24,17,30,19.70
2018,04,24,17,31,19.80
2018,04,24,17,32,19.80
2018,04,24,17,33,19.80